Osage River (Missouri), Bagnell (06926000)

StateMissouriLatestUnknown (25400 cfs)
RiverOsage RiverRatingObservedEstimated
Updated2026-05-10 8:15 (1 hour ago)Flood - The river is flooding. Obstacles can be treacherous or deadly. The river should be avoided at this stage for casual trips and definitely for the inexperienced. Trips should be attempted only with protective gear and equipment.Flood(none)(none)
Discharge25400 cfs (median: 7640 cfs)High - The river is high and potentially dangerous, especially for the young and / or inexperienced. Normal stream obstacles are sometimes difficult to navigate. Extended distances can be attempted, but canoe travel may not be advisable.High(none)(none)
Height13.48 feetGood - Conditions are ideal for a canoe or kayak. Boats typically will drag on fewer than one-quarter of riffles, if at all, and portages are unnecessary or rare. Normal float lengths can be attempted without a problem.Good(none)(none)
TrendRising (rising over 24 hours)Low - River is low but can still be floated. Some riffles are okay but most come with significant dragging and might need a portage. Float lengths should be reduced to accommodate low flow, dragging, and portages.Low(none)(none)
USGSExternal icon USGS Site (External icon Duck Duck Go Maps)Poor - River is too low to float comfortably. Most or all riffles will drag or must be portaged and some obstacles (such as slick shelf rock) cause undue problems. Avoid the river at this stage for casual paddling trips.Poor(none)(none)

Trending Data

Plot Image

Trips for Osage River (Missouri), Bagnell (06926000)

DateStartEndDistanceConditionDischargeHeightFishingDetails

A total of 0 rows are displayed.

Condition Descriptions

Fishing Conditions

Fish Species

Notes

Classic Trip List

The classic River Trips application is still available for use. It is updated with the new system using a data retrofit. It is no longer maintained. The original River Trips application is no longer updated (as of 1 Dec 2016) but can be checked for errors or for the condition of the data before it was converted to the new system.

Gauge Data Table

ObservationHeightDischargeMaximum
Discharge
Minimum
Discharge
Mean
Discharge
P05P10P20P25P50
(Median)
P75P80P90P95
2026-05-10 08:15 13.48 25400 143000 (1961) 395 (1959) 15100 453 560 1030 1330 7640 18100 25200 39300 54200
2026-05-10 07:15 12.77 22900 143000 (1961) 395 (1959) 15100 453 560 1030 1330 7640 18100 25200 39300 54200
2026-05-10 06:15 13.38 25000 143000 (1961) 395 (1959) 15100 453 560 1030 1330 7640 18100 25200 39300 54200
2026-05-10 05:15 12.67 22500 143000 (1961) 395 (1959) 15100 453 560 1030 1330 7640 18100 25200 39300 54200
2026-05-10 04:15 13.41 25100 143000 (1961) 395 (1959) 15100 453 560 1030 1330 7640 18100 25200 39300 54200
2026-05-10 03:15 14.43 28900 143000 (1961) 395 (1959) 15100 453 560 1030 1330 7640 18100 25200 39300 54200
2026-05-10 02:15 15.46 32800 143000 (1961) 395 (1959) 15100 453 560 1030 1330 7640 18100 25200 39300 54200
2026-05-10 01:15 15.05 31200 143000 (1961) 395 (1959) 15100 453 560 1030 1330 7640 18100 25200 39300 54200
2026-05-10 00:15 14.84 30400 143000 (1961) 395 (1959) 15100 453 560 1030 1330 7640 18100 25200 39300 54200
2026-05-09 23:15 15.58 33300 143000 (1961) 395 (1959) 15100 453 560 1030 1330 7640 18100 25200 39300 54200
2026-05-09 22:15 15.39 32600 128000 (1961) 318 (1976) 16000 438 545 730 1180 8940 25100 28500 39600 55200
2026-05-09 21:15 15.14 31600 128000 (1961) 318 (1976) 16000 438 545 730 1180 8940 25100 28500 39600 55200
2026-05-09 20:15 14.72 30000 128000 (1961) 318 (1976) 16000 438 545 730 1180 8940 25100 28500 39600 55200
2026-05-09 19:15 13.89 26900 128000 (1961) 318 (1976) 16000 438 545 730 1180 8940 25100 28500 39600 55200
2026-05-09 18:15 12.28 21200 128000 (1961) 318 (1976) 16000 438 545 730 1180 8940 25100 28500 39600 55200
2026-05-09 17:15 11.91 20000 128000 (1961) 318 (1976) 16000 438 545 730 1180 8940 25100 28500 39600 55200
2026-05-09 16:15 12.25 21100 128000 (1961) 318 (1976) 16000 438 545 730 1180 8940 25100 28500 39600 55200
2026-05-09 15:15 12.74 22800 128000 (1961) 318 (1976) 16000 438 545 730 1180 8940 25100 28500 39600 55200
2026-05-09 14:15 13.24 24500 128000 (1961) 318 (1976) 16000 438 545 730 1180 8940 25100 28500 39600 55200
2026-05-09 13:15 12.32 21300 128000 (1961) 318 (1976) 16000 438 545 730 1180 8940 25100 28500 39600 55200
2026-05-09 12:15 12.27 21200 128000 (1961) 318 (1976) 16000 438 545 730 1180 8940 25100 28500 39600 55200
2026-05-09 11:15 11.89 19900 128000 (1961) 318 (1976) 16000 438 545 730 1180 8940 25100 28500 39600 55200
2026-05-09 10:15 12.00 20300 128000 (1961) 318 (1976) 16000 438 545 730 1180 8940 25100 28500 39600 55200
2026-05-09 09:15 12.87 23200 128000 (1961) 318 (1976) 16000 438 545 730 1180 8940 25100 28500 39600 55200
2026-05-09 08:15 12.28 21200 128000 (1961) 318 (1976) 16000 438 545 730 1180 8940 25100 28500 39600 55200
2026-05-09 07:15 13.27 24600 128000 (1961) 318 (1976) 16000 438 545 730 1180 8940 25100 28500 39600 55200
2026-05-09 06:15 14.64 29700 128000 (1961) 318 (1976) 16000 438 545 730 1180 8940 25100 28500 39600 55200
2026-05-09 05:15 14.23 28100 128000 (1961) 318 (1976) 16000 438 545 730 1180 8940 25100 28500 39600 55200
2026-05-09 04:15 13.15 24200 128000 (1961) 318 (1976) 16000 438 545 730 1180 8940 25100 28500 39600 55200
2026-05-09 03:15 13.96 27100 128000 (1961) 318 (1976) 16000 438 545 730 1180 8940 25100 28500 39600 55200
2026-05-09 02:15 14.22 28100 128000 (1961) 318 (1976) 16000 438 545 730 1180 8940 25100 28500 39600 55200
2026-05-09 01:15 15.19 31800 128000 (1961) 318 (1976) 16000 438 545 730 1180 8940 25100 28500 39600 55200
2026-05-09 00:15 16.52 36300 128000 (1961) 318 (1976) 16000 438 545 730 1180 8940 25100 28500 39600 55200
2026-05-08 23:15 16.58 36500 128000 (1961) 318 (1976) 16000 438 545 730 1180 8940 25100 28500 39600 55200
2026-05-08 22:15 16.60 36600 108000 (1961) 380 (1971) 16100 478 544 1010 1570 8890 28600 31400 37000 55200
2026-05-08 21:15 16.55 36400 108000 (1961) 380 (1971) 16100 478 544 1010 1570 8890 28600 31400 37000 55200
2026-05-08 20:15 16.51 36300 108000 (1961) 380 (1971) 16100 478 544 1010 1570 8890 28600 31400 37000 55200
2026-05-08 19:15 16.55 36400 108000 (1961) 380 (1971) 16100 478 544 1010 1570 8890 28600 31400 37000 55200
2026-05-08 18:15 16.54 36400 108000 (1961) 380 (1971) 16100 478 544 1010 1570 8890 28600 31400 37000 55200
2026-05-08 17:15 16.52 36300 108000 (1961) 380 (1971) 16100 478 544 1010 1570 8890 28600 31400 37000 55200
2026-05-08 16:15 16.52 36300 108000 (1961) 380 (1971) 16100 478 544 1010 1570 8890 28600 31400 37000 55200
2026-05-08 15:15 16.52 36300 108000 (1961) 380 (1971) 16100 478 544 1010 1570 8890 28600 31400 37000 55200
2026-05-08 14:15 16.52 36300 108000 (1961) 380 (1971) 16100 478 544 1010 1570 8890 28600 31400 37000 55200
2026-05-08 13:15 16.51 36300 108000 (1961) 380 (1971) 16100 478 544 1010 1570 8890 28600 31400 37000 55200
2026-05-08 12:15 16.50 36200 108000 (1961) 380 (1971) 16100 478 544 1010 1570 8890 28600 31400 37000 55200
2026-05-08 11:15 16.44 36000 108000 (1961) 380 (1971) 16100 478 544 1010 1570 8890 28600 31400 37000 55200
2026-05-08 10:15 16.42 36000 108000 (1961) 380 (1971) 16100 478 544 1010 1570 8890 28600 31400 37000 55200
2026-05-08 09:15 16.41 35900 108000 (1961) 380 (1971) 16100 478 544 1010 1570 8890 28600 31400 37000 55200
2026-05-08 08:15 16.40 35900 108000 (1961) 380 (1971) 16100 478 544 1010 1570 8890 28600 31400 37000 55200
2026-05-08 07:15 16.41 35900 108000 (1961) 380 (1971) 16100 478 544 1010 1570 8890 28600 31400 37000 55200
2026-05-08 06:15 16.41 35900 108000 (1961) 380 (1971) 16100 478 544 1010 1570 8890 28600 31400 37000 55200
2026-05-08 05:15 16.39 35900 108000 (1961) 380 (1971) 16100 478 544 1010 1570 8890 28600 31400 37000 55200
2026-05-08 04:15 16.30 35600 108000 (1961) 380 (1971) 16100 478 544 1010 1570 8890 28600 31400 37000 55200
2026-05-08 03:15 16.29 35600 108000 (1961) 380 (1971) 16100 478 544 1010 1570 8890 28600 31400 37000 55200
2026-05-08 02:15 16.25 35400 108000 (1961) 380 (1971) 16100 478 544 1010 1570 8890 28600 31400 37000 55200
2026-05-08 01:15 16.14 35100 108000 (1961) 380 (1971) 16100 478 544 1010 1570 8890 28600 31400 37000 55200
2026-05-08 00:15 16.21 35300 108000 (1961) 380 (1971) 16100 478 544 1010 1570 8890 28600 31400 37000 55200
2026-05-07 23:15 16.10 34900 108000 (1961) 380 (1971) 16100 478 544 1010 1570 8890 28600 31400 37000 55200
2026-05-07 22:15 15.89 34300 92400 (1961) 416 (2005) 16100 500 554 1190 1690 9660 27900 30800 36700 51000
2026-05-07 21:15 15.35 32400 92400 (1961) 416 (2005) 16100 500 554 1190 1690 9660 27900 30800 36700 51000
2026-05-07 20:15 16.40 35900 92400 (1961) 416 (2005) 16100 500 554 1190 1690 9660 27900 30800 36700 51000
2026-05-07 19:15 16.39 35900 92400 (1961) 416 (2005) 16100 500 554 1190 1690 9660 27900 30800 36700 51000
2026-05-07 18:15 16.33 35700 92400 (1961) 416 (2005) 16100 500 554 1190 1690 9660 27900 30800 36700 51000
2026-05-07 17:15 16.27 35500 92400 (1961) 416 (2005) 16100 500 554 1190 1690 9660 27900 30800 36700 51000
2026-05-07 16:15 16.16 35100 92400 (1961) 416 (2005) 16100 500 554 1190 1690 9660 27900 30800 36700 51000
2026-05-07 15:15 16.16 35100 92400 (1961) 416 (2005) 16100 500 554 1190 1690 9660 27900 30800 36700 51000
2026-05-07 14:15 16.06 34800 92400 (1961) 416 (2005) 16100 500 554 1190 1690 9660 27900 30800 36700 51000
2026-05-07 13:15 15.88 34200 92400 (1961) 416 (2005) 16100 500 554 1190 1690 9660 27900 30800 36700 51000
2026-05-07 12:15 15.55 33200 92400 (1961) 416 (2005) 16100 500 554 1190 1690 9660 27900 30800 36700 51000
2026-05-07 11:15 15.39 32600 92400 (1961) 416 (2005) 16100 500 554 1190 1690 9660 27900 30800 36700 51000
2026-05-07 10:15 16.03 34700 92400 (1961) 416 (2005) 16100 500 554 1190 1690 9660 27900 30800 36700 51000
2026-05-07 09:15 16.30 35600 92400 (1961) 416 (2005) 16100 500 554 1190 1690 9660 27900 30800 36700 51000
2026-05-07 08:15 16.37 35800 92400 (1961) 416 (2005) 16100 500 554 1190 1690 9660 27900 30800 36700 51000
2026-05-07 07:15 16.31 35600 92400 (1961) 416 (2005) 16100 500 554 1190 1690 9660 27900 30800 36700 51000
2026-05-07 06:15 16.24 35400 92400 (1961) 416 (2005) 16100 500 554 1190 1690 9660 27900 30800 36700 51000
2026-05-07 05:15 16.50 36200 92400 (1961) 416 (2005) 16100 500 554 1190 1690 9660 27900 30800 36700 51000
2026-05-07 04:15 16.49 36200 92400 (1961) 416 (2005) 16100 500 554 1190 1690 9660 27900 30800 36700 51000
2026-05-07 03:15 16.47 36100 92400 (1961) 416 (2005) 16100 500 554 1190 1690 9660 27900 30800 36700 51000
2026-05-07 02:15 16.47 36100 92400 (1961) 416 (2005) 16100 500 554 1190 1690 9660 27900 30800 36700 51000
2026-05-07 01:15 16.47 36100 92400 (1961) 416 (2005) 16100 500 554 1190 1690 9660 27900 30800 36700 51000
2026-05-07 00:15 16.49 36200 92400 (1961) 416 (2005) 16100 500 554 1190 1690 9660 27900 30800 36700 51000
2026-05-06 23:15 16.47 36100 92400 (1961) 416 (2005) 16100 500 554 1190 1690 9660 27900 30800 36700 51000

A total of 82 rows are displayed for years 1931 through 2019.